Regional Weather Roundup
Issued by NWS Newport/Morehead, NC

Home | Current Version | Previous Version | Text Only | Print | Product List | Glossary On
Versions: 1 2 3 4 5 6 7 8 9 10 11 12 13 14 15 16 17 18 19 20 21 22 23 24 25 26 27 28 29 30 31 32 33 34 35 36 37 38 39 40 41 42 43 44 45 46 47 48 49 50
000
ASUS42 KMHX 262122
RWRMHX
WEATHER ROUNDUP FOR EASTERN NORTH CAROLINA
NATIONAL WEATHER SERVICE NEWPORT/MOREHEAD CITY NC
400 PM EST MON JAN 26 2015

NOTE: "FAIR" INDICATES FEW OR NO CLOUDS BELOW 12,000 FEET
WITH NO SIGNIFICANT WEATHER AND/OR OBSTRUCTIONS TO VISIBILITY

NCZ015>017-031-032-045>047-102-103-262200-
NORTH COAST

CITY           SKY/WX    TMP DP  RH WIND       PRES   REMARKS
EDENTON        CLOUDY    51  44  76 N10       29.55R
ELIZABETH CITY CLOUDY    48  42  80 N12       29.54R
KITTY HAWK     CLOUDY    47  45  92 N10       29.50F
MANTEO         CLOUDY    48  45  87 N7        29.51F

$$

NCZ045>047-081-094-103-104-262200-
CENTRAL COAST

CITY           SKY/WX    TMP DP  RH WIND       PRES   REMARKS
FRISCO         CLOUDY    48  45  89 NW7       29.52R
SWANQUARTER    NOT AVBL

$$

NCZ095-097-098-100-101-262200-
SOUTHERN COAST

CITY           SKY/WX    TMP DP  RH WIND       PRES   REMARKS
BEAUFORT       MOSUNNY   53  43  68 NW5       29.53R
CEDAR ISLAND   NOT AVBL
JACKSONVILLE   CLOUDY    55  41  59 NW8       29.54R
PINEY ISLAND     N/A    N/A N/A N/A MISG      29.52R
WILMINGTON     PTSUNNY   55  42  61 NW14      29.55R


$$

NCZ011>013-027>030-043-044-078>080-089-090>093-098-262200-
COASTAL PLAIN

CITY           SKY/WX    TMP DP  RH WIND       PRES   REMARKS
AHOSKIE        CLOUDY    50  40  67 N3        29.57R
CLINTON        CLOUDY    49  44  81 NW7       29.59S
ELIZABETHTOWN  CLOUDY    51  42  70 NW7       29.58S
GOLDSBORO      PTSUNNY   52  50  93 W8        29.55R
GREENVILLE     CLOUDY    52  41  66 N3        29.59S
HAVELOCK       PTSUNNY   55  40  56 N8        29.54S
KENANSVILLE    MOSUNNY   50  42  74 W6        29.58R
KINSTON        CLOUDY    54  43  66 NW8       29.56R
NEW BERN       CLOUDY    55  42  61 NW8       29.54F
RICHLANDS      CLOUDY    55  39  54 NW8       29.55S
ROCKY MOUNT    CLOUDY    51  40  65 N9        29.57R
WASHINGTON     CLOUDY    49  43  78 NW3       29.55
WHITEVILLE     DRIZZLE   51  43  72 W3        29.57R

$$

AMZ130-135-150-152-154-156-158-170-250-252-270-ANZ085-086-088-633-658-670-262200-
MARINE OBSERVATIONS

STATION/POSITION TIME  TEMP    WIND        PRES    WAVE   SWELL
                       AIR SEA DIR/SP/G            HT/PER HT/PER
                 (UTC) (F)     (DEG/KT/KT) (MB)    (FT/S) (FT/S)
CHESAPEAKE LIGHT 2100   45     360/ 17/ 18 1000.4
64 E VA BEACH    2100   52 52  320/ 12/ 16  997.7    4/ 6   2/ 8
DUCK             2100   46 44  350/ 17/ 20  998.5
2 E DUCK         2100      44                N/A     3/ 8
10 NE DUCK       2100      45                N/A     3/10   2/11
OREGON INLET     2100   48 47  330/  7/ 11  999.1
13E OREGON INLT  2100      47                N/A     3/ 9   2/11
HATTERAS CG      2100   49 53  310/  8/  9  999.2
DIAMOND BUOY     2100   57 71  310/ 10/ 14  998.7    3/ 7   3/ 7
17 S OCRACOKE    NOT AVBL
CAPE LOOKOUT     2100   51     290/  7/  8  999.8
BEAUFORT LAB     2100   53 50  340/  3/  5  998.7
27 SE WRIGHTSVLE NOT AVBL
5 SE WRIGHTSVLE  2100   56 52  280/  4/  6 1000.5
225 S CAPE HAT   2026   62 72  250/ 19/ 23 1000.3   11/ 9   7/ 9
41 SE CHARLESTON 2100   57 69  280/ 23/ 27 1002.6    7/ 6   2/ 9

$$


USA.gov is the U.S. government's official web portal to all federal, state and local government web resources and services.